sat.trackr.live / text

‹ back to catalog

COSMOS 2481

NORAD 38733 · 2012-041A

PAYLOAD ACTIVE UNKNOWN

§ Identity

Operator
Country
CIS
Launch date
2012-07-28
Launch site
PLMSC
Launch vehicle
Mass (kg)
RCS (m²)
0.90

External: N2YO · Heavens-Above · Gunter

§ Orbital elements

Epoch: 2026-09-20T05:41:31.875072Z

Period
115.90 min
Inclination
82.4794°
Eccentricity
0.0018241
Mean motion
12.42437330 rev/d
Perigee alt
1,481.9 km
Apogee alt
1,510.7 km
Semi-major
7,874.4 km
B*
9.3851e-4
RAAN
15.9515°
Arg perigee
226.6446°
Mean anomaly
133.3114°
Rev number
64,155

§ Raw data

COSMOS 24811 38733U 12041A   26263.23717448  .00000139  00000+0  93851-3 0  99982 38733  82.4794  15.9515 0018241 226.6446 133.3114 12.42437330641558

JSON: /api/v1/satellites/38733 · /tle

For live sub-satellite position, see the globe view (requires WebGL).

§ Visibility from observer

Set your observer location to see the next 7 days of passes ≥ 10°. The values pass through the URL so the page stays shareable.

No JS? Fill the form by hand. The geolocation button needs JavaScript.